Regional Weather Roundup
Issued by NWS

Home | Current Version | Previous Version | Graphics & Text | Print | Product List | Glossary On
Versions: 1 2 3 4 5 6 7 8 9 10 11 12 13 14 15 16 17 18 19 20 21 22 23 24 25 26 27 28 29 30 31 32 33 34 35 36 37 38 39 40 41 42 43 44 45 46 47 48 49 50
000
ASUS43 KTOP 240408
RWRKS

WEATHER ROUNDUP FOR KANSAS
NATIONAL WEATHER SERVICE GOODLAND KS
1000 PM CST MON JAN 23 2017

NOTE:  "FAIR" INDICATES FEW OR NO CLOUDS BELOW 12,000 FEET WITH NO
SIGNIFICANT WEATHER AND/OR OBSTRUCTIONS TO VISIBILITY.

KSZ001>006-013>018-027>032-041>047-240500-
NORTHWEST KANSAS

CITY           SKY/WX    TMP DP  RH WIND       PRES   REMARKS
GOODLAND       CLEAR     29  26  89 SE3       29.49F
HAYS           CLEAR     36  32  85 E9        29.60F
HILL CITY      CLEAR     37  33  85 E8        29.58S
RUSSELL        CLEAR     38  32  79 SE18      29.59F WCI  28
$$

KSZ061>065-074>080-084>089-240500-
SOUTHWEST KANSAS

CITY           SKY/WX    TMP DP  RH WIND       PRES   REMARKS
DODGE CITY     CLEAR     40  34  79 S8        29.55F
ELKHART          N/A     51  26  37 SW14        N/A
GARDEN CITY    CLEAR     37  31  78 SE9       29.52F
GREAT BEND     CLEAR     40  34  79 SE13      29.60F WCI  32
LIBERAL          N/A     41  27  56 S8        29.55F
PRATT          CLEAR     42  32  67 SE13      29.61F
$$

KSZ066>073-081>083-090>101-240500-
SOUTHEAST KANSAS

CITY           SKY/WX    TMP DP  RH WIND       PRES   REMARKS
CHANUTE        CLEAR     40  33  76 E9        29.78F
COFFEYVILLE    CLEAR     40  32  73 E6        29.77F
HUTCHINSON     CLOUDY    42  31  64 E13       29.66F
MEDICINE LODGE   N/A     43  34  70 SE12      29.62F
NEWTON         CLEAR     40  33  76 SE14      29.70  WCI  32
PARSONS        CLEAR     42  34  73 E5        29.78F
WICHITA INTL   CLEAR     44  33  65 SE15      29.68F
WICHITA JABRA  CLEAR     41  34  76 SE10      29.69F
WICHITA MCCONL CLEAR     41  33  71 SE10      29.69F
WINFIELD       CLEAR     43  33  68 SE10      29.71F
$$

KSZ007>012-019>026-033>040-048>060-102>105-240500-
NORTHEAST KANSAS

CITY           SKY/WX    TMP DP  RH WIND       PRES   REMARKS
CONCORDIA      CLEAR     34  33  96 E12       29.70F FOG     WCI  25
EMPORIA        CLEAR     38  33  82 SE10      29.75F WCI  31
LAWRENCE       CLEAR     31  31 100 E7        29.82F FOG
MANHATTAN      CLEAR     36  32  85 NE8       29.76S FOG
MARYSVILLE     CLEAR     32  32 100 SE13      29.76F FOG     WCI  22
OLATHE IND     CLEAR     33  31  92 SE6       29.82F
OLATHE EXE     CLEAR     33  31  92 E6        29.82F
SALINA         CLEAR     43  30  60 E12       29.70F
TOPEKA BILLARD CLEAR     33  30  88 E7        29.81S FOG
TOPEKA FORBES  CLEAR     35  31  85 SE8       29.79F FOG
$$




USA.gov is the U.S. government's official web portal to all federal, state and local government web resources and services.